This is the latest recevied weather packets stored in our database for station/object AG1T-20. If no packets are shown the sender has not sent any weather packets the latest 10 day(s).
| Time | Temp. | Humidity | Pressure | Rain* | Wind** | Luminosity | Snow |
|---|---|---|---|---|---|---|---|
| 1777932605 | 23.33° C | 19% | 1009.5 hPa | 0 mm | - | 463 W/m² | - |
| 1777932005 | 24.44° C | 19% | 1009.5 hPa | 0 mm | - | 500 W/m² | - |
| 1777931405 | 23.89° C | 18% | 1010.3 hPa | 0 mm | - | 535 W/m² | - |
| 1777930805 | 23.89° C | 16% | 1010.3 hPa | 0 mm | - | 571 W/m² | - |
| 1777930205 | 25° C | 19% | 1010.3 hPa | 0 mm | - | 603 W/m² | - |
| 1777929605 | 23.33° C | 22% | 1010.3 hPa | 0 mm | - | 634 W/m² | - |
| 1777929005 | 22.78° C | 22% | 1010.3 hPa | 0 mm | - | 660 W/m² | - |
| 1777928405 | 23.33° C | 25% | 1010.3 hPa | 0 mm | - | 689 W/m² | - |
| 1777927805 | 22.78° C | 25% | 1011.1 hPa | 0 mm | - | 714 W/m² | - |
| 1777927205 | 23.33° C | 27% | 1011.1 hPa | 0 mm | - | 738 W/m² | - |
| 1777926605 | 22.78° C | 24% | 1011.1 hPa | 0 mm | - | 771 W/m² | - |
| 1777926005 | 22.22° C | 25% | 1011.1 hPa | 0 mm | - | 791 W/m² | - |
| 1777925405 | 22.78° C | 30% | 1011.1 hPa | 0 mm | - | 811 W/m² | - |
| 1777924805 | 22.78° C | 31% | 1011.1 hPa | 0 mm | - | 828 W/m² | - |
| 1777924205 | 22.22° C | 29% | 1011.7 hPa | 0 mm | - | 850 W/m² | - |
| 1777923605 | 22.22° C | 27% | 1011.7 hPa | 0 mm | - | 867 W/m² | - |
| 1777923005 | 22.22° C | 27% | 1011.7 hPa | 0 mm | - | 883 W/m² | - |
| 1777922405 | 22.22° C | 27% | 1011.7 hPa | 0 mm | - | 897 W/m² | - |
| 1777921805 | 21.67° C | 26% | 1011.7 hPa | 0 mm | - | 910 W/m² | - |
| 1777921205 | 22.22° C | 29% | 1011.7 hPa | 0 mm | - | 925 W/m² | - |
| 1777920605 | 21.11° C | 34% | 1012.6 hPa | 0 mm | - | 933 W/m² | - |
| 1777920005 | 20.56° C | 31% | 1012.6 hPa | 0 mm | - | 942 W/m² | - |
| 1777919404 | 20.56° C | 35% | 1012.6 hPa | 0 mm | - | 949 W/m² | - |
| 1777918805 | 21.67° C | 33% | 1012.6 hPa | 0 mm | - | 953 W/m² | - |
| 1777918205 | 20.56° C | 36% | 1012.6 hPa | 0 mm | - | 958 W/m² | - |
* Rain latest hour (hover to see other rain measurements)
** Current wind speed in m/s (hover to see current wind gust speed)